Weather in Berens River

Canada     52°21′23″N   97°00′47″W
temp.,
°C
wind,
m/s
gust,
m/s
humid.,
%
clouds,
%
prec.,
mm/h
press.,
hPa
HPBL,
m
27 september, mon
mon2701:00+11ese3462100 0.0 1011102
04:00+9se46685 0.0 1011148
07:00+9sse47735 0.0 1012202
10:00+12sse576522 0.0 1011321
13:00+16sse7105889 0.0 1008558
16:00+17sse7115313 0.0 1007456
19:00+17se6125310 0.0 1005227
22:00+15se7135929 0.0 1004217
28 september, tue
tue2801:00+15sse7136538 0.0 1004282
04:00+13se51074100 0.0 1004177
07:00+12se48788 0.0 1004145
10:00+15se46683 0.0 1005164
13:00+20sse34565 0.0 1005233
16:00+22sse35510 0.0 1005343
19:00+20e34590 0.0 100547
22:00+18ese712673 0.0 1006182
29 september, wed
wed2901:00+17ese713725 0.0 1005210
04:00+17ese71474100 0.0 1005232
07:00+17ese81575100 0.0 1005264
10:00+19se8156878 0.0 1005299
13:00+23sse71352100 0.0 1005342
16:00+22sse81453100 0.0 1006484
19:00+21s61159100 0.0 1007187
22:00+16ssw5881100 0.2 1010109
30 september, thu
thu3001:00+15sw337880 0.2 101238
04:00+15wsw367598 0.0 1014100
07:00+14wnw4676100 0.0 1016201
10:00+13wsw3479100 0.1 1018243
13:00+14wnw447379 0.3 1018452
16:00+14wnw23785 0.0 1019312
19:00+13nw11845 0.0 101929
22:00+12wnw00850 0.0 101910
1 october, fri
fri101:00+13ssw11830 0.0 101910
04:00+12sse22850 0.0 101936
07:00+11sse34860 0.0 1019115
10:00+13s34750 0.0 1019218
13:00+16s45620 0.0 1018351
16:00+18s46480 0.0 1017338
19:00+15se47605 0.0 101766
22:00+13sse4862100 0.0 101793